#timestamp,LO_Frequency,Hit,StdDev 
1598626815.6,286046999.2,N
1598626835.4,286046998.4,N
1598626855.2,286046998.3,N
1598626875.1,286047002.8,N
1598626876.0,286047002.8,N
1598626895.8,286047001.9,N
1598626915.7,286047003.7,N
1598626935.5,286047003.0,N
1598626955.3,286047003.4,N
1598626975.2,286047003.3,N
1598626995.0,286047005.5,Y
1598626995.9,286047005.5,P
1598627015.8,286047003.7,N
1598627035.6,286047006.0,N
1598627055.5,286047005.6,N
1598627075.3,286047002.9,N
1598627095.1,286047004.8,N
1598627115.9,286047004.7,N
1598627135.7,286047009.1,Y
1598627155.5,286047003.9,P
1598627175.4,286047003.6,P
1598627195.2,286047003.4,P
1598627215.1,286047005.0,Y
1598627216.0,286047005.0,P
1598627235.8,286047000.1,N
1598627255.6,286047002.6,N
1598627275.5,286047002.6,N
1598627295.3,286047002.6,N
1598627315.2,286047001.8,N
1598627335.9,286047001.3,N
1598627355.7,286047003.9,N
1598627375.6,286047002.5,N
1598627395.4,286047002.0,N
1598627415.2,286047002.5,N
1598627435.1,286046999.7,N
1598627436.0,286046999.7,N
1598627455.8,286047002.6,N
1598627475.7,286047001.5,N
1598627495.5,286047001.3,N
1598627515.3,286047004.1,N
1598627535.2,286047003.1,N
1598627555.0,286047003.8,N
1598627555.9,286047003.8,N
1598627575.8,286047003.2,N
1598627595.6,286047005.4,Y
1598627615.4,286047001.5,P
1598627635.3,286047003.8,P
1598627655.1,286047003.8,P
1598627675.9,286047003.9,Y
1598627695.7,286047001.0,P
1598627715.5,286046998.6,N
1598627735.4,286047000.3,N
1598627755.2,286047000.8,N
1598627775.1,286046998.7,N
1598627776.0,286046998.7,N
1598627795.8,286046996.9,N
1598627815.7,286046999.6,N
1598627835.5,286046996.7,N
1598627855.3,286046997.1,N
1598627875.2,286046998.7,N
1598627895.0,286047001.1,N
1598627895.9,286047001.1,N
1598627915.7,286046998.4,N
1598627935.6,286046996.6,N
1598627955.4,286046995.2,N
1598627975.3,286046995.2,N
1598627995.1,286046995.8,N
1598627996.0,286046995.8,N
1598628015.8,286046996.4,N
1598628035.7,286046993.9,N
1598628055.5,286046993.6,N
1598628075.3,286046994.7,N
1598628095.2,286046994.4,N
1598628115.0,286046993.6,N
1598628115.9,286046993.6,N
1598628135.8,286046994.4,N
1598628155.6,286046992.2,N
1598628175.4,286046992.0,N
1598628195.3,286046992.3,N
1598628215.1,286046990.1,Y
1598628235.9,286046993.4,P
1598628255.7,286046993.3,P
1598628275.5,286046993.5,P
1598628295.4,286046993.8,Y
1598628315.2,286047000.3,P
1598628335.1,286047000.4,N
1598628336.0,286047000.4,N
1598628355.8,286046998.6,N
1598628375.6,286046998.4,N
1598628395.2,286046996.6,N
1598628415.0,286046997.0,N
1598628415.9,286046997.0,N
1598628435.8,286046999.2,N
1598628455.6,286046997.3,N
1598628475.5,286046994.9,N
1598628495.3,286046995.2,N
1598628515.1,286046995.0,N
1598628535.9,286046995.5,N
1598628555.7,286046998.0,N
1598628575.5,286046994.9,N
1598628595.4,286046998.0,N
1598628615.2,286046994.9,N
1598628635.1,286046997.4,N
1598628636.0,286046997.4,N
1598628655.8,286046995.6,N
1598628675.6,286046995.9,N
1598628695.5,286046995.9,N
1598628715.3,286046996.4,N
1598628735.2,286046997.6,N
1598628755.9,286046995.5,N
1598628775.7,286046995.1,N
1598628795.6,286046996.4,N
1598628815.4,286046993.6,Y
1598628835.2,286046997.6,P
1598628855.1,286046997.8,P
1598628856.0,286046997.8,P
1598628875.8,286046998.0,Y
1598628895.7,286046998.9,P
1598628915.5,286046999.4,N
1598628935.3,286047001.2,N
1598628955.2,286047001.1,N
1598628975.0,286047000.9,N
1598628975.9,286047000.9,N
1598628995.8,286047000.3,N
1598629015.6,286047001.1,N
1598629035.5,286047000.8,N
1598629055.3,286046998.5,N
1598629075.1,286046998.8,N
1598629095.9,286046999.6,N
1598629115.7,286046997.7,N
1598629135.5,286046997.9,N
1598629155.4,286046997.2,N
1598629175.2,286046996.7,N
1598629195.1,286046996.6,N
1598629196.0,286046996.6,N
1598629215.8,286046998.8,N
1598629235.6,286046999.5,N
1598629255.5,286046997.7,N
1598629275.3,286046997.2,N
1598629295.2,286046997.5,N
1598629315.9,286046997.4,N
1598629335.7,286046999.6,N
1598629355.6,286046998.2,N
1598629375.4,286046998.8,N
1598629395.2,286046999.0,N
1598629415.1,286046998.9,N
1598629416.0,286046998.9,N
1598629435.8,286046999.1,N
1598629455.7,286046997.4,N
1598629475.5,286046998.9,N
1598629495.3,286046998.9,N
1598629515.2,286046998.9,N
1598629535.0,286046998.4,N
1598629535.9,286046998.4,N
1598629555.8,286046998.9,N
1598629575.6,286046999.3,N
1598629595.5,286046997.0,Y
1598629615.3,286047000.2,P
1598629635.1,286046999.8,N
1598629655.9,286047000.6,N
1598629675.7,286047001.2,N
1598629695.6,286046998.3,N
1598629715.4,286046998.6,N
1598629735.2,286046998.7,N
1598629755.1,286047000.8,N
1598629756.0,286047000.8,N
1598629775.8,286047001.1,N
1598629795.7,286047000.6,N
1598629815.5,286047002.6,N
1598629835.3,286046999.8,N
1598629855.2,286047000.0,N
1598629875.9,286047001.1,N
1598629895.7,286047000.7,N
1598629915.6,286046999.0,N
1598629935.4,286046998.3,N
1598629955.2,286046998.3,N
1598629975.1,286046998.4,N
1598629976.0,286046998.4,N
1598629995.8,286047000.7,N
1598630015.7,286047000.6,N
1598630035.5,286047002.3,N
1598630055.3,286047000.2,N
1598630075.2,286047001.2,N
1598630095.0,286047000.2,N
1598630095.9,286047000.2,N
1598630115.8,286047000.8,N
1598630135.6,286046998.8,N
1598630155.4,286046999.1,N
1598630175.3,286046999.6,N
1598630195.1,286046999.2,N
1598630215.8,286046999.4,N
1598630235.7,286046999.5,N
1598630255.5,286046999.1,N
1598630275.4,286046998.7,N
1598630295.2,286046999.2,N
1598630315.0,286046999.5,N
1598630315.9,286046999.5,N
1598630335.8,286046999.5,N
1598630355.6,286046996.5,Y
1598630375.4,286046999.3,P
1598630395.3,286046998.4,P
